Wind_Speed
20 19 18 17 16 18 20 20 20 20 22 23 25 25 25 26 25 24 25 25 23 23 24 24 24 24 24 25 24 24 23 23 23 23 23 23 23 23 22 22 22 22 22 22
20 19 19 19 19 20 21 21 21 22 24 24 25 25 26 26 26 26 27 26 25 25 24 24 25 25 26 26 26 25 24 24 23 24 24 24 24 24 23 23 23 24 24 24
20 20 20 20 19 20 21 22 23 24 25 25 26 26 26 26 27 27 27 26 27 26 26 25 26 27 27 26 26 27 26 26 25 25 25 25 25 24 25 25 25 25 25 25
20 20 21 19 20 21 22 23 25 26 26 25 26 26 26 26 27 27 27 27 27 27 27 27 27 27 27 27 27 26 26 26 26 25 25 25 25 25 26 26 26 25 25 25
20 20 20 20 21 22 22 23 25 25 25 26 26 26 26 27 28 28 28 28 28 27 27 26 26 26 26 26 26 27 26 26 25 25 25 26 26 27 26 26 26 26 25 25
21 21 20 21 22 22 23 25 26 25 25 26 26 26 26 26 27 27 27 27 28 27 27 27 27 27 27 26 26 27 27 26 26 26 26 26 27 27 27 27 27 25 26 25
22 22 23 23 23 23 24 26 27 26 27 27 27 27 27 26 26 26 26 26 26 26 27 27 27 27 27 27 27 27 28 28 28 28 28 27 27 27 28 28 27 26 25 24
23 23 25 26 25 25 26 27 27 28 28 27 28 28 27 27 27 26 26 26 26 26 27 27 27 27 27 27 28 28 28 28 28 28 28 28 27 27 28 29 28 28 27 26
24 25 26 27 27 26 26 27 28 28 27 27 28 28 27 27 27 27 26 27 27 27 27 27 27 27 28 28 28 29 28 28 28 28 28 27 27 27 28 29 29 28 27 27
25 26 27 28 28 28 28 28 28 29 29 27 27 27 27 26 26 26 26 26 27 27 26 26 26 27 27 27 28 28 28 28 28 28 28 28 28 28 27 28 29 29 28 28
26 27 27 27 28 28 28 28 29 29 27 27 27 27 26 26 25 25 25 26 26 26 26 26 26 26 26 27 27 27 27 27 27 28 27 27 27 27 27 27 27 28 28 29
25 26 26 26 24 25 26 26 26 26 25 25 25 25 26 26 26 25 25 25 26 26 25 26 26 25 25 25 25 26 26 26 26 26 26 26 26 27 27 27 27 27 28 29
26 26 25 25 26 25 26 26 26 25 25 25 24 25 25 25 25 25 25 25 25 25 25 24 24 24 24 25 25 25 25 25 25 25 26 26 26 27 28 27 27 27 27 28
24 24 25 25 26 26 25 25 25 25 26 26 25 24 24 25 25 25 24 24 24 23 23 23 23 23 24 24 24 24 24 25 24 24 24 25 25 26 27 27 26 26 26 27
24 24 25 25 25 25 25 24 24 25 25 26 25 25 24 24 25 25 25 24 24 23 22 22 22 23 23 24 24 24 23 24 24 25 25 25 26 26 27 27 27 26 26 26
24 24 24 24 24 25 25 25 25 25 24 24 24 24 23 23 24 24 24 24 23 23 23 23 23 24 24 24 24 24 24 24 24 25 26 26 26 26 27 27 27 27 26 26
23 23 23 23 23 23 23 24 24 24 24 24 23 23 23 23 23 23 24 24 23 24 24 24 24 24 25 25 25 25 25 26 25 25 26 26 26 26 26 26 26 27 27 27
22 22 22 23 23 23 23 23 23 23 23 22 22 21 21 22 22 22 23 24 24 24 24 23 23 24 24 24 25 25 25 25 25 25 26 26 25 26 26 26 27 27 27 27
21 22 22 22 22 22 22 22 22 22 23 23 22 22 21 21 22 22 23 23 23 23 24 24 24 23 24 24 25 25 25 25 26 26 26 26 25 26 26 26 27 26 26 26
21 21 21 21 22 21 21 21 22 22 22 22 22 22 22 22 22 22 22 22 23 23 22 22 23 23 23 24 24 24 24 24 25 25 25 25 26 26 27 26 25 24 25 26
21 21 21 21 21 21 21 21 21 21 21 21 21 21 21 22 22 22 22 22 22 22 22 22 22 22 23 23 24 24 23 24 24 24 25 25 25 26 26 26 26 26 26 27
20 20 20 21 21 21 20 20 20 21 21 21 20 20 20 21 21 21 21 21 21 21 21 21 21 21 22 22 23 22 21 21 22 23 24 24 25 25 25 25 26 26 27 27
20 19 19 19 19 18 18 19 19 19 20 20 19 20 20 20 20 20 20 20 20 20 20 21 21 21 21 21 21 21 21 21 20 21 23 24 24 24 24 24 25 26 26 27
19 19 18 18 17 17 17 16 17 18 18 18 19 19 20 20 20 20 20 20 20 20 20 20 20 20 21 20 20 21 20 20 21 21 21 22 23 24 24 24 25 25 25 26
17 17 17 16 16 16 15 15 15 16 17 17 17 18 19 19 19 18 19 19 19 19 20 20 20 20 20 20 21 21 20 20 20 21 21 22 22 23 24 24 24 24 24 25
16 16 15 15 15 15 15 15 15 15 15 15 15 16 17 17 17 18 18 19 19 19 19 19 20 20 20 20 20 20 20 20 21 21 22 22 22 23 23 23 23 24 24 24
14 14 14 15 15 15 14 14 14 14 14 15 15 14 15 16 16 17 17 17 17 17 17 18 19 19 20 20 21 20 21 21 21 21 22 21 21 22 22 23 22 22 22 22
Wind_Direction
243 243 249 255 249 247 247 244 250 253 254 258 263 266 265 267 268 268 271 272 271 271 269 268 269 270 271 273 273 274 271 271 272 273 274 276 276 276 274 273 275 277 280 280
246 246 247 249 253 251 251 250 251 251 253 259 265 267 265 266 266 267 269 271 273 272 272 270 269 269 269 272 274 274 274 273 273 273 273 274 274 274 273 274 275 276 278 278
248 249 250 253 255 255 254 251 251 253 254 260 264 264 266 268 269 269 271 271 272 273 272 271 271 272 272 273 274 273 271 273 273 273 273 274 274 274 272 274 274 274 276 276
254 254 252 253 252 253 255 254 256 258 260 266 268 267 268 267 267 268 270 271 272 274 275 274 272 272 273 273 271 273 272 270 270 273 274 274 273 273 274 275 276 275 275 274
253 257 257 254 253 252 254 258 261 262 263 267 268 269 268 267 268 269 270 271 271 273 274 273 273 272 272 272 272 273 271 269 270 273 274 274 274 273 273 274 274 273 275 275
253 253 259 257 258 257 258 258 261 263 263 266 268 268 269 270 270 271 272 272 271 271 271 272 272 272 271 271 271 271 271 271 271 273 275 276 274 273 272 271 271 272 273 273
255 254 258 260 260 261 258 259 264 265 267 269 269 270 272 272 272 272 273 272 271 271 272 273 272 270 270 270 270 271 271 272 272 272 274 275 275 273 271 270 269 270 271 272
259 256 257 259 263 262 262 264 267 268 270 270 270 271 272 273 273 273 272 272 271 271 272 272 271 270 271 271 270 270 271 271 272 272 273 274 274 273 272 270 269 269 270 272
257 257 258 260 263 266 267 268 268 269 268 269 270 271 271 273 273 274 273 271 272 273 273 273 272 272 271 271 272 272 272 272 272 271 271 273 273 273 273 271 271 272 271 271
259 260 261 262 264 265 267 268 268 270 271 270 269 270 271 271 273 274 274 272 273 273 272 271 272 273 273 273 272 272 272 271 270 270 271 272 273 272 273 272 272 273 272 271
260 262 263 263 264 265 266 268 269 271 273 271 269 270 272 272 274 273 273 273 273 273 272 271 271 273 273 274 273 271 271 272 271 272 271 271 272 273 273 274 273 274 273 273
261 263 264 266 268 268 269 270 270 270 271 270 269 268 269 270 272 272 273 274 273 273 273 272 272 272 273 274 275 274 273 274 274 273 273 272 272 272 273 274 274 274 274 275
263 262 263 266 268 270 270 271 271 270 271 272 270 269 270 271 272 272 273 274 274 273 272 272 272 272 273 275 276 276 275 275 275 274 272 272 273 273 273 273 274 275 275 275
263 263 264 266 269 271 272 273 273 272 271 271 272 271 272 271 271 272 272 273 274 273 272 272 272 273 274 275 276 276 276 276 275 275 275 275 275 275 275 275 274 274 274 274
263 264 265 267 268 268 270 272 273 272 272 273 273 273 272 271 270 270 271 272 274 274 272 270 272 273 274 276 277 277 276 275 274 275 276 277 279 279 278 276 274 274 274 274
263 264 266 267 269 269 270 272 273 272 273 274 274 273 272 273 272 271 272 273 274 275 276 274 274 275 275 276 277 277 278 277 276 276 278 279 280 281 280 277 274 275 275 275
264 265 267 268 269 270 272 274 274 273 273 274 274 273 272 272 272 273 272 272 274 275 277 277 276 275 276 277 278 279 278 278 277 277 278 279 280 280 279 277 275 273 274 276
264 266 266 267 268 270 272 274 275 274 274 274 274 273 273 273 274 274 274 274 274 274 274 277 278 276 277 279 280 279 277 278 279 279 279 280 279 279 279 278 278 276 276 276
264 266 267 268 269 271 270 271 272 273 273 272 272 273 274 275 274 275 276 276 276 277 276 275 276 278 278 279 280 280 279 279 280 279 278 279 279 279 279 279 279 278 278 277
265 267 269 270 271 271 270 270 271 272 273 272 271 271 272 273 273 274 277 277 277 277 276 275 276 278 279 280 280 280 281 280 280 279 278 279 280 280 280 280 280 278 276 277
268 268 269 270 270 270 270 270 271 271 272 272 271 271 271 272 273 274 276 276 276 275 275 276 276 278 279 280 279 280 282 281 279 279 280 281 282 282 281 281 281 281 280 279
267 268 269 270 269 270 271 271 271 272 273 272 272 271 272 274 275 276 277 277 275 275 275 276 277 278 280 281 282 281 282 283 282 281 281 282 282 282 282 282 283 283 283 282
267 267 269 269 270 271 272 271 271 272 274 273 271 272 273 274 275 276 277 278 278 276 276 276 278 280 281 282 284 284 284 287 287 284 283 283 285 284 283 283 285 285 285 285
268 266 265 267 270 272 272 272 272 274 275 274 271 272 274 275 275 275 277 279 280 278 278 278 280 282 283 284 285 287 287 289 290 289 287 286 286 287 287 287 287 288 288 288
266 266 266 268 271 271 272 273 274 275 277 275 273 274 275 275 275 276 279 280 279 279 279 281 283 284 284 286 287 288 291 291 290 288 288 289 289 290 290 289 289 290 291 290
265 264 263 264 267 268 270 271 274 277 277 278 277 277 278 278 279 280 281 281 282 284 284 284 285 283 283 286 287 288 289 289 289 289 290 290 291 291 292 292 292 293 293 292
265 265 265 264 265 266 268 269 273 277 279 278 276 278 279 281 283 284 284 285 286 287 288 288 286 284 285 286 287 288 289 290 291 291 292 291 291 292 293 293 294 294 294 294
Height
5817 5819 5819 5819 5821 5822 5823 5824 5826 5826 5825 5823 5822 5821 5822 5822 5822 5823 5823 5822 5823 5824 5824 5824 5824 5823 5823 5823 5822 5822 5822 5822 5822 5823 5823 5823 5823 5823 5823 5823 5824 5824 5824 5825
5811 5813 5814 5815 5816 5817 5818 5819 5820 5820 5819 5818 5815 5816 5817 5817 5817 5817 5817 5817 5817 5818 5818 5818 5818 5818 5817 5818 5817 5817 5816 5817 5817 5817 5817 5817 5817 5817 5817 5817 5818 5818 5819 5819
5806 5807 5808 5810 5811 5812 5812 5813 5814 5814 5814 5812 5811 5811 5812 5812 5811 5811 5811 5812 5811 5812 5812 5812 5812 5811 5811 5811 5811 5810 5810 5811 5811 5811 5810 5811 5811 5811 5811 5811 5811 5812 5812 5812
5801 5802 5803 5807 5805 5806 5806 5806 5806 5806 5806 5805 5806 5806 5806 5806 5805 5805 5805 5805 5805 5805 5805 5805 5805 5805 5805 5804 5803 5803 5803 5804 5804 5804 5804 5804 5804 5804 5804 5804 5805 5805 5805 5806
5795 5796 5797 5798 5798 5799 5800 5800 5799 5800 5800 5800 5799 5799 5799 5799 5799 5799 5799 5799 5799 5799 5798 5798 5798 5798 5798 5798 5797 5797 5797 5796 5797 5797 5797 5797 5797 5797 5797 5798 5798 5798 5798 5798
5789 5790 5791 5792 5791 5792 5794 5793 5792 5793 5793 5793 5793 5793 5792 5792 5792 5792 5792 5792 5792 5792 5791 5791 5791 5791 5791 5791 5791 5790 5789 5789 5790 5790 5790 5790 5790 5790 5790 5790 5791 5791 5792 5791
5783 5784 5785 5784 5785 5786 5788 5786 5786 5786 5786 5786 5786 5786 5786 5785 5785 5785 5784 5784 5784 5784 5784 5784 5784 5784 5784 5784 5784 5783 5783 5783 5783 5783 5783 5783 5782 5782 5782 5782 5783 5784 5784 5784
5777 5777 5780 5777 5778 5779 5779 5779 5779 5779 5779 5779 5779 5779 5778 5778 5778 5778 5777 5777 5777 5777 5777 5777 5776 5777 5776 5776 5776 5776 5776 5776 5776 5776 5775 5775 5775 5774 5774 5774 5775 5776 5776 5777
5770 5772 5771 5771 5771 5771 5771 5771 5772 5771 5771 5772 5772 5772 5771 5771 5771 5771 5770 5770 5770 5770 5769 5769 5769 5769 5769 5768 5768 5768 5768 5768 5768 5768 5768 5767 5767 5767 5766 5767 5767 5768 5768 5769
5763 5762 5763 5764 5763 5764 5764 5765 5765 5764 5764 5764 5764 5764 5764 5764 5764 5763 5763 5763 5762 5762 5762 5762 5762 5762 5761 5761 5760 5760 5760 5760 5760 5760 5760 5760 5759 5759 5759 5759 5759 5760 5760 5760
5755 5755 5756 5756 5756 5757 5757 5757 5757 5757 5756 5756 5757 5757 5756 5757 5757 5756 5756 5756 5755 5755 5755 5755 5754 5754 5754 5754 5753 5753 5753 5753 5752 5752 5752 5752 5751 5751 5751 5751 5751 5751 5751 5751
5748 5749 5749 5749 5748 5750 5750 5750 5750 5750 5749 5749 5749 5749 5749 5749 5749 5749 5749 5748 5748 5748 5747 5747 5747 5747 5747 5746 5746 5745 5745 5745 5744 5744 5744 5744 5743 5743 5743 5743 5742 5742 5742 5743
5741 5742 5742 5742 5742 5743 5743 5743 5743 5742 5742 5742 5742 5742 5741 5741 5742 5742 5742 5741 5741 5740 5740 5740 5740 5740 5740 5739 5739 5738 5738 5737 5737 5736 5736 5736 5735 5735 5735 5735 5734 5734 5734 5735
5734 5734 5735 5736 5736 5736 5736 5736 5736 5735 5735 5735 5735 5735 5735 5735 5735 5735 5734 5734 5733 5733 5733 5733 5733 5733 5733 5732 5732 5731 5731 5730 5729 5729 5728 5728 5728 5727 5727 5727 5727 5727 5727 5727
5727 5728 5729 5729 5729 5730 5730 5730 5729 5729 5728 5728 5728 5728 5728 5728 5727 5727 5727 5727 5726 5726 5726 5726 5726 5726 5726 5725 5725 5724 5724 5723 5722 5722 5721 5721 5720 5719 5719 5719 5719 5719 5718 5719
5721 5721 5722 5723 5723 5723 5723 5723 5723 5722 5722 5722 5722 5721 5721 5721 5720 5720 5720 5720 5720 5720 5720 5719 5719 5719 5718 5718 5717 5717 5717 5716 5715 5714 5714 5713 5712 5711 5711 5710 5710 5710 5710 5710
5715 5716 5716 5716 5716 5716 5717 5716 5716 5716 5715 5715 5715 5715 5714 5714 5714 5714 5714 5713 5713 5713 5713 5712 5712 5712 5711 5711 5710 5710 5709 5709 5708 5707 5706 5705 5704 5704 5703 5702 5701 5701 5702 5702
5709 5709 5710 5710 5710 5710 5710 5710 5709 5709 5709 5708 5708 5708 5708 5708 5708 5707 5707 5707 5706 5706 5706 5705 5705 5704 5704 5703 5703 5702 5701 5701 5700 5699 5699 5698 5697 5696 5695 5695 5693 5692 5693 5693
5702 5703 5703 5703 5703 5703 5703 5703 5703 5703 5702 5702 5702 5702 5702 5702 5701 5701 5700 5700 5699 5699 5699 5698 5698 5697 5697 5696 5695 5694 5694 5693 5692 5692 5691 5690 5689 5688 5688 5687 5686 5685 5685 5685
5696 5697 5697 5697 5697 5697 5697 5697 5696 5696 5696 5696 5695 5695 5695 5695 5695 5694 5693 5693 5692 5692 5692 5691 5690 5690 5690 5689 5688 5687 5686 5685 5685 5684 5683 5683 5682 5681 5679 5678 5678 5677 5677 5676
5690 5690 5691 5691 5691 5691 5690 5690 5690 5690 5689 5689 5689 5689 5688 5688 5688 5687 5686 5686 5686 5685 5685 5685 5684 5683 5683 5682 5681 5680 5679 5678 5677 5676 5676 5675 5674 5673 5671 5670 5670 5669 5669 5668
5684 5684 5684 5684 5684 5684 5684 5684 5684 5683 5683 5683 5682 5682 5682 5682 5681 5680 5680 5679 5679 5678 5678 5678 5678 5677 5676 5675 5674 5672 5672 5671 5670 5669 5668 5667 5666 5665 5664 5663 5662 5661 5660 5659
5678 5678 5678 5678 5678 5678 5678 5678 5677 5677 5677 5676 5676 5676 5676 5676 5675 5674 5674 5673 5672 5672 5672 5671 5671 5671 5670 5669 5668 5666 5666 5665 5664 5662 5661 5660 5659 5658 5657 5655 5654 5653 5652 5651
5672 5672 5672 5673 5673 5673 5672 5672 5672 5671 5671 5670 5670 5670 5670 5670 5669 5669 5668 5667 5667 5667 5666 5666 5666 5665 5664 5663 5662 5660 5659 5658 5657 5656 5655 5653 5652 5651 5649 5648 5647 5645 5644 5643
5666 5667 5667 5667 5667 5667 5667 5667 5667 5666 5666 5665 5665 5664 5664 5664 5664 5663 5662 5662 5662 5661 5661 5660 5660 5659 5658 5657 5656 5655 5653 5652 5651 5650 5649 5647 5645 5644 5642 5641 5639 5638 5636 5635
5662 5662 5662 5662 5663 5663 5662 5662 5662 5662 5661 5661 5660 5660 5659 5659 5659 5658 5657 5657 5656 5656 5655 5654 5654 5653 5652 5651 5650 5649 5648 5647 5645 5644 5642 5641 5639 5637 5636 5634 5632 5631 5629 5628
5657 5657 5658 5658 5658 5658 5658 5658 5658 5657 5657 5657 5656 5656 5655 5655 5654 5654 5653 5652 5651 5651 5650 5649 5648 5647 5646 5645 5644 5643 5642 5641 5639 5637 5636 5634 5632 5631 5629 5628 5626 5624 5622 5621